contact:dominique.lefevre@mio.osupytheas.fr, maurice.libes@osupytheas.fr, didier.mallarino@osupytheas.fr
Project:EMSO http://www.emso-fr.org/EMSO-France
Depth: 2436.0 m
Title:EMSO Ligure Ouest : Data MII capteur CSTAR
DateTime,Latitude,Longitude,Instrument_Serial,Reference_Counts,Signal_Counts,Corrected_Signal_raw_counts,Calculated_Beam_c_inverse_meters,Internal_thermistor_counts
DateTime,Latitude,Longitude,Instrument_Serial,Reference_Counts,Signal_Counts,Corrected_Signal_raw_counts,Calculated_Beam_c_inverse_meters,Internal_thermistor_counts
2020-09-30T00:00:21,42.805,6.029,CST-1368DR,6045,8461,15107,0.133,551
2020-09-30T00:03:23,42.805,6.029,CST-1368DR,6045,8458,15103,0.134,551
2020-09-30T00:06:24,42.805,6.029,CST-1368DR,6045,8460,15105,0.133,551
2020-09-30T00:09:26,42.805,6.029,CST-1368DR,6044,8459,15107,0.133,551
2020-09-30T00:12:28,42.805,6.029,CST-1368DR,6044,8460,15107,0.133,551
2020-09-30T00:15:29,42.805,6.029,CST-1368DR,6044,8459,15107,0.133,551
2020-09-30T00:18:31,42.805,6.029,CST-1368DR,6043,8458,15108,0.132,551
2020-09-30T00:21:32,42.805,6.029,CST-1368DR,6043,8459,15109,0.132,551
2020-09-30T00:24:34,42.805,6.029,CST-1368DR,6043,8458,15107,0.133,551
2020-09-30T00:27:35,42.805,6.029,CST-1368DR,6042,8457,15108,0.132,551
2020-09-30T00:30:37,42.805,6.029,CST-1368DR,6042,8457,15107,0.133,551
2020-09-30T00:33:39,42.805,6.029,CST-1368DR,6042,8457,15107,0.133,551
2020-09-30T00:36:40,42.805,6.029,CST-1368DR,6041,8457,15109,0.132,551
2020-09-30T00:39:42,42.805,6.029,CST-1368DR,6041,8456,15108,0.132,551
2020-09-30T00:42:43,42.805,6.029,CST-1368DR,6041,8455,15106,0.133,551
2020-09-30T00:45:45,42.805,6.029,CST-1368DR,6041,8455,15107,0.133,551
2020-09-30T00:48:47,42.805,6.029,CST-1368DR,6040,8454,15108,0.132,551
2020-09-30T00:51:48,42.805,6.029,CST-1368DR,6040,8455,15108,0.132,551
2020-09-30T00:54:50,42.805,6.029,CST-1368DR,6040,8454,15106,0.133,551
2020-09-30T00:57:51,42.805,6.029,CST-1368DR,6040,8453,15106,0.133,551
2020-09-30T01:00:53,42.805,6.029,CST-1368DR,6039,8431,15068,0.143,551
2020-09-30T01:03:54,42.805,6.029,CST-1368DR,6039,8452,15105,0.133,551
2020-09-30T01:06:56,42.805,6.029,CST-1368DR,6039,8452,15106,0.133,551
2020-09-30T01:09:58,42.805,6.029,CST-1368DR,6038,8452,15108,0.132,551
2020-09-30T01:12:59,42.805,6.029,CST-1368DR,6038,8451,15106,0.133,551
2020-09-30T01:16:01,42.805,6.029,CST-1368DR,6038,8451,15106,0.133,551
2020-09-30T01:19:02,42.805,6.029,CST-1368DR,6038,8451,15106,0.133,551
2020-09-30T01:22:04,42.805,6.029,CST-1368DR,6037,8448,15103,0.134,551
2020-09-30T01:25:06,42.805,6.029,CST-1368DR,6037,8450,15107,0.133,551
2020-09-30T01:28:07,42.805,6.029,CST-1368DR,6037,8447,15102,0.134,551
2020-09-30T01:31:09,42.805,6.029,CST-1368DR,6036,8448,15105,0.133,551
2020-09-30T01:34:10,42.805,6.029,CST-1368DR,6036,8449,15108,0.132,551
2020-09-30T01:37:12,42.805,6.029,CST-1368DR,6036,8447,15103,0.134,551
2020-09-30T01:40:13,42.805,6.029,CST-1368DR,6036,8448,15106,0.133,551
2020-09-30T01:43:15,42.805,6.029,CST-1368DR,6035,8448,15107,0.133,551
2020-09-30T01:46:17,42.805,6.029,CST-1368DR,6035,8448,15107,0.133,551
2020-09-30T01:49:18,42.805,6.029,CST-1368DR,6035,8446,15105,0.133,550
2020-09-30T01:52:20,42.805,6.029,CST-1368DR,6035,8447,15105,0.133,551
2020-09-30T01:55:21,42.805,6.029,CST-1368DR,6035,8447,15105,0.133,550
2020-09-30T01:58:23,42.805,6.029,CST-1368DR,6034,8446,15106,0.133,551
2020-09-30T02:01:24,42.805,6.029,CST-1368DR,6034,8444,15104,0.133,551
2020-09-30T02:04:26,42.805,6.029,CST-1368DR,6034,8446,15106,0.133,551
2020-09-30T02:07:28,42.805,6.029,CST-1368DR,6034,8445,15106,0.133,551
2020-09-30T02:10:29,42.805,6.029,CST-1368DR,6033,8445,15107,0.133,551
2020-09-30T02:13:31,42.805,6.029,CST-1368DR,6033,8444,15106,0.133,551
2020-09-30T02:16:32,42.805,6.029,CST-1368DR,6033,8443,15104,0.133,551
2020-09-30T02:19:34,42.805,6.029,CST-1368DR,6032,8443,15106,0.133,551
2020-09-30T02:22:36,42.805,6.029,CST-1368DR,6032,8443,15105,0.133,551
2020-09-30T02:25:37,42.805,6.029,CST-1368DR,6032,8443,15105,0.133,551
2020-09-30T02:28:39,42.805,6.029,CST-1368DR,6032,8442,15105,0.133,551
2020-09-30T02:31:40,42.805,6.029,CST-1368DR,6032,8442,15105,0.133,551
2020-09-30T02:34:42,42.805,6.029,CST-1368DR,6031,8441,15105,0.133,551
2020-09-30T02:37:43,42.805,6.029,CST-1368DR,6031,8441,15105,0.133,551
2020-09-30T02:40:45,42.805,6.029,CST-1368DR,6031,8441,15104,0.133,551
2020-09-30T02:43:47,42.805,6.029,CST-1368DR,6031,8441,15105,0.133,551
2020-09-30T02:46:48,42.805,6.029,CST-1368DR,6031,8440,15103,0.134,551
2020-09-30T02:49:50,42.805,6.029,CST-1368DR,6030,8439,15103,0.134,551
2020-09-30T02:52:51,42.805,6.029,CST-1368DR,6030,8439,15103,0.134,550
2020-09-30T02:55:53,42.805,6.029,CST-1368DR,6030,8439,15103,0.134,551
2020-09-30T02:58:55,42.805,6.029,CST-1368DR,6030,8437,15100,0.134,551
2020-09-30T03:01:56,42.805,6.029,CST-1368DR,6029,8439,15106,0.133,551
2020-09-30T03:04:58,42.805,6.029,CST-1368DR,6029,8438,15104,0.133,551
2020-09-30T03:07:59,42.805,6.029,CST-1368DR,6029,8438,15104,0.133,551
2020-09-30T03:11:01,42.805,6.029,CST-1368DR,6028,8436,15103,0.134,551
2020-09-30T03:14:02,42.805,6.029,CST-1368DR,6028,8437,15105,0.133,551
2020-09-30T03:17:04,42.805,6.029,CST-1368DR,6028,8437,15105,0.133,551
2020-09-30T03:20:06,42.805,6.029,CST-1368DR,6028,8436,15104,0.133,551
2020-09-30T03:23:07,42.805,6.029,CST-1368DR,6027,8436,15106,0.133,551
2020-09-30T03:26:09,42.805,6.029,CST-1368DR,6027,8436,15106,0.133,551
2020-09-30T03:29:10,42.805,6.029,CST-1368DR,6027,8436,15105,0.133,551
2020-09-30T03:32:12,42.805,6.029,CST-1368DR,6027,8435,15103,0.134,551
2020-09-30T03:35:14,42.805,6.029,CST-1368DR,6026,8434,15104,0.133,551
2020-09-30T03:38:15,42.805,6.029,CST-1368DR,6026,8434,15105,0.133,551
2020-09-30T03:41:17,42.805,6.029,CST-1368DR,6026,8434,15104,0.133,551
2020-09-30T03:44:18,42.805,6.029,CST-1368DR,6026,8432,15101,0.134,551
2020-09-30T03:47:20,42.805,6.029,CST-1368DR,6026,8433,15103,0.134,551
2020-09-30T03:50:21,42.805,6.029,CST-1368DR,6025,8433,15104,0.133,551
2020-09-30T03:53:23,42.805,6.029,CST-1368DR,6025,8432,15103,0.134,551
2020-09-30T03:56:25,42.805,6.029,CST-1368DR,6025,8432,15104,0.133,551
2020-09-30T03:59:26,42.805,6.029,CST-1368DR,6025,8432,15102,0.134,551
2020-09-30T04:02:28,42.805,6.029,CST-1368DR,6025,8432,15102,0.134,551
2020-09-30T04:05:29,42.805,6.029,CST-1368DR,6024,8430,15101,0.134,551
2020-09-30T04:08:31,42.805,6.029,CST-1368DR,6024,8431,15104,0.133,551
2020-09-30T04:11:32,42.805,6.029,CST-1368DR,6024,8431,15104,0.133,551
2020-09-30T04:14:34,42.805,6.029,CST-1368DR,6024,8431,15103,0.134,551
2020-09-30T04:17:36,42.805,6.029,CST-1368DR,6024,8430,15101,0.134,551
2020-09-30T04:20:37,42.805,6.029,CST-1368DR,6023,8430,15105,0.133,550
2020-09-30T04:23:39,42.805,6.029,CST-1368DR,6023,8429,15102,0.134,551
2020-09-30T04:26:40,42.805,6.029,CST-1368DR,6023,8430,15103,0.134,551
2020-09-30T04:29:42,42.805,6.029,CST-1368DR,6023,8429,15103,0.134,551
2020-09-30T04:32:44,42.805,6.029,CST-1368DR,6022,8429,15104,0.133,551
2020-09-30T04:35:45,42.805,6.029,CST-1368DR,6022,8428,15103,0.134,551
2020-09-30T04:38:47,42.805,6.029,CST-1368DR,6022,8427,15101,0.134,551
2020-09-30T04:41:48,42.805,6.029,CST-1368DR,6022,8425,15097,0.135,551
2020-09-30T04:44:50,42.805,6.029,CST-1368DR,6022,8428,15103,0.134,551
2020-09-30T04:47:51,42.805,6.029,CST-1368DR,6021,8428,15105,0.133,551
2020-09-30T04:50:53,42.805,6.029,CST-1368DR,6021,8427,15104,0.133,551
2020-09-30T04:53:55,42.805,6.029,CST-1368DR,6021,8427,15104,0.133,551
2020-09-30T04:56:56,42.805,6.029,CST-1368DR,6021,8426,15102,0.134,551
2020-09-30T04:59:58,42.805,6.029,CST-1368DR,6021,8427,15104,0.133,551
2020-09-30T05:02:59,42.805,6.029,CST-1368DR,6020,8427,15105,0.133,551
2020-09-30T05:06:01,42.805,6.029,CST-1368DR,6020,8426,15104,0.133,551
2020-09-30T05:09:02,42.805,6.029,CST-1368DR,6020,8426,15104,0.133,551
2020-09-30T05:12:04,42.805,6.029,CST-1368DR,6020,8426,15104,0.133,551
2020-09-30T05:15:06,42.805,6.029,CST-1368DR,6019,8426,15106,0.133,551
2020-09-30T05:18:07,42.805,6.029,CST-1368DR,6019,8424,15103,0.134,551
2020-09-30T05:21:09,42.805,6.029,CST-1368DR,6019,8424,15102,0.134,551
2020-09-30T05:24:10,42.805,6.029,CST-1368DR,6019,8424,15103,0.134,551
2020-09-30T05:27:12,42.805,6.029,CST-1368DR,6019,8425,15104,0.133,551
2020-09-30T05:30:14,42.805,6.029,CST-1368DR,6019,8424,15103,0.134,551
2020-09-30T05:33:15,42.805,6.029,CST-1368DR,6018,8424,15104,0.133,551
2020-09-30T05:36:17,42.805,6.029,CST-1368DR,6018,8423,15104,0.133,551
2020-09-30T05:39:18,42.805,6.029,CST-1368DR,6018,8424,15105,0.133,551
2020-09-30T05:42:20,42.805,6.029,CST-1368DR,6018,8422,15102,0.134,551
2020-09-30T05:45:21,42.805,6.029,CST-1368DR,6017,8422,15105,0.133,551
2020-09-30T05:48:23,42.805,6.029,CST-1368DR,6017,8422,15105,0.133,551
2020-09-30T05:51:25,42.805,6.029,CST-1368DR,6017,8422,15104,0.133,551
2020-09-30T05:54:26,42.805,6.029,CST-1368DR,6017,8421,15102,0.134,551
2020-09-30T05:57:28,42.805,6.029,CST-1368DR,6017,8422,15104,0.133,551
2020-09-30T06:00:29,42.805,6.029,CST-1368DR,6016,8421,15105,0.133,551
2020-09-30T06:03:31,42.805,6.029,CST-1368DR,6016,8421,15105,0.133,551
2020-09-30T06:06:33,42.805,6.029,CST-1368DR,6016,8420,15102,0.134,551
2020-09-30T06:09:34,42.805,6.029,CST-1368DR,6016,8421,15105,0.133,551
2020-09-30T06:12:36,42.805,6.029,CST-1368DR,6016,8420,15103,0.134,551
2020-09-30T06:15:37,42.805,6.029,CST-1368DR,6016,8420,15103,0.134,551
2020-09-30T06:18:39,42.805,6.029,CST-1368DR,6015,8419,15104,0.133,551
2020-09-30T06:21:40,42.805,6.029,CST-1368DR,6015,8419,15103,0.134,551
2020-09-30T06:24:42,42.805,6.029,CST-1368DR,6015,8419,15103,0.134,551
2020-09-30T06:27:44,42.805,6.029,CST-1368DR,6015,8419,15103,0.134,551
2020-09-30T06:30:45,42.805,6.029,CST-1368DR,6015,8419,15103,0.134,551
2020-09-30T06:33:47,42.805,6.029,CST-1368DR,6015,8418,15101,0.134,551
2020-09-30T06:36:48,42.805,6.029,CST-1368DR,6014,8418,15104,0.133,551
2020-09-30T06:39:50,42.805,6.029,CST-1368DR,6014,8418,15104,0.133,551
2020-09-30T06:42:51,42.805,6.029,CST-1368DR,6014,8416,15101,0.134,551
2020-09-30T06:45:53,42.805,6.029,CST-1368DR,6014,8417,15103,0.134,551
2020-09-30T06:48:55,42.805,6.029,CST-1368DR,6014,8415,15099,0.135,551
2020-09-30T06:51:56,42.805,6.029,CST-1368DR,6013,8415,15101,0.134,551
2020-09-30T06:54:58,42.805,6.029,CST-1368DR,6013,8415,15102,0.134,551
2020-09-30T06:57:59,42.805,6.029,CST-1368DR,6013,8416,15102,0.134,551
2020-09-30T07:01:01,42.805,6.029,CST-1368DR,6013,8415,15101,0.134,550
2020-09-30T07:04:03,42.805,6.029,CST-1368DR,6013,8414,15099,0.135,550
2020-09-30T07:07:04,42.805,6.029,CST-1368DR,6012,8415,15103,0.134,551
2020-09-30T07:10:06,42.805,6.029,CST-1368DR,6012,8414,15102,0.134,551
2020-09-30T07:13:07,42.805,6.029,CST-1368DR,6012,8414,15101,0.134,551
2020-09-30T07:16:09,42.805,6.029,CST-1368DR,6012,8414,15101,0.134,551
2020-09-30T07:19:10,42.805,6.029,CST-1368DR,6011,8413,15102,0.134,551
2020-09-30T07:22:12,42.805,6.029,CST-1368DR,6011,8412,15101,0.134,551
2020-09-30T07:25:14,42.805,6.029,CST-1368DR,6011,8413,15102,0.134,551
2020-09-30T07:28:15,42.805,6.029,CST-1368DR,6011,8412,15100,0.134,551
2020-09-30T07:31:17,42.805,6.029,CST-1368DR,6011,8412,15101,0.134,551
2020-09-30T07:34:18,42.805,6.029,CST-1368DR,6011,8411,15099,0.135,551
2020-09-30T07:37:20,42.805,6.029,CST-1368DR,6010,8411,15101,0.134,551
2020-09-30T07:40:21,42.805,6.029,CST-1368DR,6010,8412,15103,0.134,551
2020-09-30T07:43:23,42.805,6.029,CST-1368DR,6010,8412,15102,0.134,551
2020-09-30T07:46:25,42.805,6.029,CST-1368DR,6010,8412,15102,0.134,551
2020-09-30T07:49:26,42.805,6.029,CST-1368DR,6010,8412,15102,0.134,551
2020-09-30T07:52:28,42.805,6.029,CST-1368DR,6010,8409,15097,0.135,551
2020-09-30T07:55:29,42.805,6.029,CST-1368DR,6009,8409,15099,0.135,551
2020-09-30T07:58:31,42.805,6.029,CST-1368DR,6009,8404,15090,0.137,551
2020-09-30T08:01:33,42.805,6.029,CST-1368DR,6009,8405,15093,0.136,551
2020-09-30T08:04:34,42.805,6.029,CST-1368DR,6009,8408,15098,0.135,551
2020-09-30T08:07:36,42.805,6.029,CST-1368DR,6009,8409,15099,0.135,551
2020-09-30T08:10:37,42.805,6.029,CST-1368DR,6009,8409,15099,0.135,551
2020-09-30T08:13:39,42.805,6.029,CST-1368DR,6008,8409,15101,0.134,551
2020-09-30T08:16:40,42.805,6.029,CST-1368DR,6008,8409,15101,0.134,551
2020-09-30T08:19:42,42.805,6.029,CST-1368DR,6008,8409,15101,0.134,550
2020-09-30T08:22:44,42.805,6.029,CST-1368DR,6008,8409,15101,0.134,551
2020-09-30T08:25:45,42.805,6.029,CST-1368DR,6008,8407,15099,0.135,551
2020-09-30T08:28:47,42.805,6.029,CST-1368DR,6008,8407,15099,0.135,551
2020-09-30T08:31:48,42.805,6.029,CST-1368DR,6007,8405,15097,0.135,551
2020-09-30T08:34:50,42.805,6.029,CST-1368DR,6007,8408,15102,0.134,551
2020-09-30T08:37:51,42.805,6.029,CST-1368DR,6007,8406,15100,0.134,551
2020-09-30T08:40:53,42.805,6.029,CST-1368DR,6007,8407,15101,0.134,551
2020-09-30T08:43:55,42.805,6.029,CST-1368DR,6007,8406,15099,0.135,551
2020-09-30T08:46:56,42.805,6.029,CST-1368DR,6007,8406,15098,0.135,551
2020-09-30T08:49:58,42.805,6.029,CST-1368DR,6006,8406,15102,0.134,551
2020-09-30T08:52:59,42.805,6.029,CST-1368DR,6006,8406,15102,0.134,551
2020-09-30T08:56:01,42.805,6.029,CST-1368DR,6006,8406,15102,0.134,551
2020-09-30T08:59:03,42.805,6.029,CST-1368DR,6006,8405,15100,0.134,551
2020-09-30T09:02:04,42.805,6.029,CST-1368DR,6006,8403,15095,0.136,551
2020-09-30T09:05:06,42.805,6.029,CST-1368DR,6006,8405,15099,0.135,551
2020-09-30T09:08:07,42.805,6.029,CST-1368DR,6005,8406,15103,0.134,551
2020-09-30T09:11:09,42.805,6.029,CST-1368DR,6005,8403,15099,0.135,551
2020-09-30T09:14:10,42.805,6.029,CST-1368DR,6005,8404,15100,0.134,551
2020-09-30T09:17:12,42.805,6.029,CST-1368DR,6005,8403,15098,0.135,551
2020-09-30T09:20:14,42.805,6.029,CST-1368DR,6005,8404,15099,0.135,551
2020-09-30T09:23:15,42.805,6.029,CST-1368DR,6005,8404,15100,0.134,551
2020-09-30T09:26:17,42.805,6.029,CST-1368DR,6004,8403,15101,0.134,551
2020-09-30T09:29:18,42.805,6.029,CST-1368DR,6004,8403,15100,0.134,551
2020-09-30T09:32:20,42.805,6.029,CST-1368DR,6004,8403,15100,0.134,551
2020-09-30T09:35:22,42.805,6.029,CST-1368DR,6004,8403,15100,0.134,551
2020-09-30T09:38:23,42.805,6.029,CST-1368DR,6004,8403,15100,0.134,551
2020-09-30T09:41:25,42.805,6.029,CST-1368DR,6003,8403,15103,0.134,551
2020-09-30T09:44:26,42.805,6.029,CST-1368DR,6003,8402,15101,0.134,551
2020-09-30T09:47:28,42.805,6.029,CST-1368DR,6003,8402,15102,0.134,551
2020-09-30T09:50:29,42.805,6.029,CST-1368DR,6003,8401,15100,0.134,550
2020-09-30T09:53:31,42.805,6.029,CST-1368DR,6003,8402,15101,0.134,551
2020-09-30T09:56:33,42.805,6.029,CST-1368DR,6003,8402,15101,0.134,551
2020-09-30T09:59:34,42.805,6.029,CST-1368DR,6002,8401,15102,0.134,551
2020-09-30T10:02:36,42.805,6.029,CST-1368DR,6002,8400,15101,0.134,551
2020-09-30T10:05:37,42.805,6.029,CST-1368DR,6002,8398,15097,0.135,551
2020-09-30T10:08:39,42.805,6.029,CST-1368DR,6002,8399,15099,0.135,551
2020-09-30T10:11:40,42.805,6.029,CST-1368DR,6002,8400,15099,0.135,551
2020-09-30T10:14:42,42.805,6.029,CST-1368DR,6002,8399,15098,0.135,551
2020-09-30T10:17:44,42.805,6.029,CST-1368DR,6001,8399,15100,0.134,551
2020-09-30T10:20:45,42.805,6.029,CST-1368DR,6001,8399,15100,0.134,551
2020-09-30T10:23:47,42.805,6.029,CST-1368DR,6001,8398,15099,0.135,550
2020-09-30T10:26:48,42.805,6.029,CST-1368DR,6001,8398,15099,0.135,551
2020-09-30T10:29:50,42.805,6.029,CST-1368DR,6001,8397,15096,0.135,551
2020-09-30T10:32:52,42.805,6.029,CST-1368DR,6001,8398,15099,0.135,551
2020-09-30T10:35:53,42.805,6.029,CST-1368DR,6001,8398,15099,0.135,551
2020-09-30T10:38:55,42.805,6.029,CST-1368DR,6000,8397,15099,0.135,551
2020-09-30T10:41:56,42.805,6.029,CST-1368DR,6000,8395,15096,0.135,551
2020-09-30T10:44:58,42.805,6.029,CST-1368DR,6000,8398,15100,0.134,551
2020-09-30T10:47:59,42.805,6.029,CST-1368DR,6000,8396,15098,0.135,551
2020-09-30T10:51:01,42.805,6.029,CST-1368DR,6000,8397,15100,0.134,551
2020-09-30T10:54:03,42.805,6.029,CST-1368DR,6000,8397,15099,0.135,551
2020-09-30T10:57:04,42.805,6.029,CST-1368DR,6000,8396,15098,0.135,551
2020-09-30T11:00:06,42.805,6.029,CST-1368DR,6000,8397,15099,0.135,551
2020-09-30T11:03:07,42.805,6.029,CST-1368DR,5999,8395,15098,0.135,551
2020-09-30T11:06:09,42.805,6.029,CST-1368DR,5999,8394,15096,0.135,551
2020-09-30T11:09:11,42.805,6.029,CST-1368DR,5999,8395,15097,0.135,551
2020-09-30T11:12:12,42.805,6.029,CST-1368DR,5999,8395,15097,0.135,551
2020-09-30T11:15:14,42.805,6.029,CST-1368DR,5999,8394,15097,0.135,551
2020-09-30T11:18:15,42.805,6.029,CST-1368DR,5999,8394,15096,0.135,550
2020-09-30T11:21:17,42.805,6.029,CST-1368DR,5999,8392,15092,0.137,551
2020-09-30T11:24:18,42.805,6.029,CST-1368DR,5998,8393,15098,0.135,551
2020-09-30T11:27:20,42.805,6.029,CST-1368DR,5998,8393,15098,0.135,551
2020-09-30T11:30:22,42.805,6.029,CST-1368DR,5998,8392,15095,0.136,551
2020-09-30T11:33:23,42.805,6.029,CST-1368DR,5998,8392,15095,0.136,551
2020-09-30T11:36:25,42.805,6.029,CST-1368DR,5998,8393,15098,0.135,551
2020-09-30T11:39:26,42.805,6.029,CST-1368DR,5998,8392,15095,0.136,550
2020-09-30T11:42:28,42.805,6.029,CST-1368DR,5998,8393,15096,0.135,551
2020-09-30T11:45:29,42.805,6.029,CST-1368DR,5997,8393,15099,0.135,551
2020-09-30T11:48:31,42.805,6.029,CST-1368DR,5997,8391,15095,0.136,551
2020-09-30T11:51:33,42.805,6.029,CST-1368DR,5997,8391,15096,0.135,551
2020-09-30T11:54:34,42.805,6.029,CST-1368DR,5997,8387,15088,0.138,551
2020-09-30T11:57:36,42.805,6.029,CST-1368DR,5997,8392,15098,0.135,551
2020-09-30T12:00:37,42.805,6.029,CST-1368DR,5997,8390,15094,0.136,551
2020-09-30T12:03:39,42.805,6.029,CST-1368DR,5996,8392,15101,0.134,551
2020-09-30T12:06:41,42.805,6.029,CST-1368DR,5996,8391,15099,0.135,551
2020-09-30T12:09:42,42.805,6.029,CST-1368DR,5996,8391,15098,0.135,551
2020-09-30T12:12:44,42.805,6.029,CST-1368DR,5996,8389,15094,0.136,551
2020-09-30T12:15:45,42.805,6.029,CST-1368DR,5996,8391,15097,0.135,551
2020-09-30T12:18:47,42.805,6.029,CST-1368DR,5996,8386,15089,0.137,551
2020-09-30T12:21:48,42.805,6.029,CST-1368DR,5995,8388,15095,0.136,551
2020-09-30T12:24:50,42.805,6.029,CST-1368DR,5995,8388,15095,0.136,551
2020-09-30T12:27:52,42.805,6.029,CST-1368DR,5995,8389,15097,0.135,551
2020-09-30T12:30:53,42.805,6.029,CST-1368DR,5995,8390,15099,0.135,551
2020-09-30T12:33:55,42.805,6.029,CST-1368DR,5995,8388,15096,0.135,551
2020-09-30T12:36:56,42.805,6.029,CST-1368DR,5995,8389,15097,0.135,551
2020-09-30T12:39:58,42.805,6.029,CST-1368DR,5995,8389,15097,0.135,551
2020-09-30T12:42:59,42.805,6.029,CST-1368DR,5995,8389,15096,0.135,551
2020-09-30T12:46:01,42.805,6.029,CST-1368DR,5994,8389,15099,0.135,551
2020-09-30T12:49:03,42.805,6.029,CST-1368DR,5994,8388,15098,0.135,551
2020-09-30T12:52:04,42.805,6.029,CST-1368DR,5994,8388,15098,0.135,551
2020-09-30T12:55:06,42.805,6.029,CST-1368DR,5994,8389,15099,0.135,551
2020-09-30T12:58:07,42.805,6.029,CST-1368DR,5994,8387,15095,0.136,551
2020-09-30T13:01:09,42.805,6.029,CST-1368DR,5994,8387,15095,0.136,551
2020-09-30T13:04:11,42.805,6.029,CST-1368DR,5994,8388,15097,0.135,551
2020-09-30T13:07:12,42.805,6.029,CST-1368DR,5993,8388,15100,0.134,551
2020-09-30T13:10:14,42.805,6.029,CST-1368DR,5993,8387,15098,0.135,551
2020-09-30T13:13:15,42.805,6.029,CST-1368DR,5993,8387,15098,0.135,551
2020-09-30T13:16:17,42.805,6.029,CST-1368DR,5993,8387,15097,0.135,551
2020-09-30T13:19:18,42.805,6.029,CST-1368DR,5993,8386,15096,0.135,551
2020-09-30T13:22:20,42.805,6.029,CST-1368DR,5993,8387,15097,0.135,551
2020-09-30T13:25:22,42.805,6.029,CST-1368DR,5993,8386,15096,0.135,551
2020-09-30T13:28:23,42.805,6.029,CST-1368DR,5993,8386,15096,0.135,551
2020-09-30T13:31:25,42.805,6.029,CST-1368DR,5993,8385,15095,0.136,551
2020-09-30T13:34:26,42.805,6.029,CST-1368DR,5992,8385,15097,0.135,551
2020-09-30T13:37:28,42.805,6.029,CST-1368DR,5992,8384,15095,0.136,551
2020-09-30T13:40:30,42.805,6.029,CST-1368DR,5992,8385,15097,0.135,550
2020-09-30T13:43:31,42.805,6.029,CST-1368DR,5992,8383,15094,0.136,551
2020-09-30T13:46:33,42.805,6.029,CST-1368DR,5992,8384,15096,0.135,551
2020-09-30T13:49:34,42.805,6.029,CST-1368DR,5992,8385,15096,0.135,551
2020-09-30T13:52:36,42.805,6.029,CST-1368DR,5992,8382,15092,0.137,551
2020-09-30T13:55:37,42.805,6.029,CST-1368DR,5992,8384,15095,0.136,551
2020-09-30T13:58:39,42.805,6.029,CST-1368DR,5992,8384,15094,0.136,551
2020-09-30T14:01:41,42.805,6.029,CST-1368DR,5991,8382,15094,0.136,551
2020-09-30T14:04:42,42.805,6.029,CST-1368DR,5991,8384,15097,0.135,551
2020-09-30T14:07:44,42.805,6.029,CST-1368DR,5991,8383,15095,0.136,551
2020-09-30T14:10:45,42.805,6.029,CST-1368DR,5991,8383,15096,0.135,551
2020-09-30T14:13:47,42.805,6.029,CST-1368DR,5991,8384,15097,0.135,551
2020-09-30T14:16:48,42.805,6.029,CST-1368DR,5991,8383,15096,0.135,551
2020-09-30T14:19:50,42.805,6.029,CST-1368DR,5991,8383,15095,0.136,551
2020-09-30T14:22:52,42.805,6.029,CST-1368DR,5990,8378,15090,0.137,551
2020-09-30T14:25:53,42.805,6.029,CST-1368DR,5990,8383,15097,0.135,551
2020-09-30T14:28:55,42.805,6.029,CST-1368DR,5990,8382,15096,0.135,551
2020-09-30T14:31:56,42.805,6.029,CST-1368DR,5990,8382,15097,0.135,550
2020-09-30T14:34:58,42.805,6.029,CST-1368DR,5990,8382,15096,0.135,551
2020-09-30T14:38:00,42.805,6.029,CST-1368DR,5990,8377,15087,0.138,550
2020-09-30T14:41:01,42.805,6.029,CST-1368DR,5990,8380,15093,0.136,551
2020-09-30T14:44:03,42.805,6.029,CST-1368DR,5989,8380,15096,0.135,551
2020-09-30T14:47:04,42.805,6.029,CST-1368DR,5989,8382,15098,0.135,550
2020-09-30T14:50:06,42.805,6.029,CST-1368DR,5989,8381,15096,0.135,551
2020-09-30T14:53:07,42.805,6.029,CST-1368DR,5989,8381,15097,0.135,551
2020-09-30T14:56:09,42.805,6.029,CST-1368DR,5989,8381,15097,0.135,551
2020-09-30T14:59:11,42.805,6.029,CST-1368DR,5989,8381,15096,0.135,550
2020-09-30T15:02:12,42.805,6.029,CST-1368DR,5989,8380,15095,0.136,551
2020-09-30T15:05:14,42.805,6.029,CST-1368DR,5989,8380,15095,0.136,551
2020-09-30T15:08:15,42.805,6.029,CST-1368DR,5988,8378,15093,0.136,551
2020-09-30T15:11:17,42.805,6.029,CST-1368DR,5988,8380,15098,0.135,551
2020-09-30T15:14:18,42.805,6.029,CST-1368DR,5988,8379,15096,0.135,551
2020-09-30T15:17:20,42.805,6.029,CST-1368DR,5988,8379,15095,0.136,551
2020-09-30T15:20:22,42.805,6.029,CST-1368DR,5988,8379,15096,0.135,551
2020-09-30T15:23:23,42.805,6.029,CST-1368DR,5988,8379,15096,0.135,551
2020-09-30T15:26:25,42.805,6.029,CST-1368DR,5988,8379,15096,0.135,551
2020-09-30T15:29:26,42.805,6.029,CST-1368DR,5988,8378,15094,0.136,551
2020-09-30T15:32:28,42.805,6.029,CST-1368DR,5987,8379,15098,0.135,551
2020-09-30T15:35:30,42.805,6.029,CST-1368DR,5987,8379,15098,0.135,550
2020-09-30T15:38:31,42.805,6.029,CST-1368DR,5987,8379,15099,0.135,551
2020-09-30T15:41:33,42.805,6.029,CST-1368DR,5987,8378,15097,0.135,551
2020-09-30T15:44:34,42.805,6.029,CST-1368DR,5987,8378,15096,0.135,551
2020-09-30T15:47:36,42.805,6.029,CST-1368DR,5987,8378,15095,0.136,551
2020-09-30T15:50:37,42.805,6.029,CST-1368DR,5987,8378,15095,0.136,551
2020-09-30T15:53:39,42.805,6.029,CST-1368DR,5987,8377,15094,0.136,551
2020-09-30T15:56:41,42.805,6.029,CST-1368DR,5986,8378,15098,0.135,551
2020-09-30T15:59:42,42.805,6.029,CST-1368DR,5986,8378,15098,0.135,551
2020-09-30T16:02:44,42.805,6.029,CST-1368DR,5986,8378,15098,0.135,551
2020-09-30T16:05:45,42.805,6.029,CST-1368DR,5986,8377,15097,0.135,551
2020-09-30T16:08:47,42.805,6.029,CST-1368DR,5986,8377,15096,0.135,551
2020-09-30T16:11:49,42.805,6.029,CST-1368DR,5986,8377,15097,0.135,551
2020-09-30T16:14:50,42.805,6.029,CST-1368DR,5986,8377,15097,0.135,551
2020-09-30T16:17:52,42.805,6.029,CST-1368DR,5986,8377,15096,0.135,551
2020-09-30T16:20:53,42.805,6.029,CST-1368DR,5986,8376,15096,0.135,551
2020-09-30T16:23:55,42.805,6.029,CST-1368DR,5985,8368,15083,0.139,551
2020-09-30T16:26:56,42.805,6.029,CST-1368DR,5985,8375,15095,0.136,551
2020-09-30T16:29:58,42.805,6.029,CST-1368DR,5985,8374,15094,0.136,551
2020-09-30T16:33:00,42.805,6.029,CST-1368DR,5985,8375,15096,0.135,551
2020-09-30T16:36:01,42.805,6.029,CST-1368DR,5985,8375,15096,0.135,551
2020-09-30T16:39:03,42.805,6.029,CST-1368DR,5985,8375,15095,0.136,551
2020-09-30T16:42:04,42.805,6.029,CST-1368DR,5985,8375,15096,0.135,551
2020-09-30T16:45:06,42.805,6.029,CST-1368DR,5985,8376,15097,0.135,551
2020-09-30T16:48:07,42.805,6.029,CST-1368DR,5985,8375,15095,0.136,551
2020-09-30T16:51:09,42.805,6.029,CST-1368DR,5984,8375,15097,0.135,551